Location: La Brionne
(46.1728°N, 1.7849°E)
Time: 05:20:05
(UTC+00:00)

MOZHAYETS 4 - Visible Passes

Search period start: 23 March 2023 00:00
Search period end: 02 April 2023 00:00
Orbit: 658 x 676 km, 98.2° (Epoch: 22 March)

Date Brightness Start Highest point End Pass type
(mag) Time Alt. Az. Time Alt. Az. Time Alt. Az.
23 Mar 10.6 01:19:12 13° NNE 01:19:12 13° NNE 01:19:59 10° NNE visible
23 Mar 10.1 02:57:19 14° NNW 02:57:19 14° NNW 02:57:55 10° NNW visible
24 Mar 10.2 01:51:11 18° NNE 01:51:11 18° NNE 01:52:29 10° N visible
25 Mar 9.9 02:23:11 20° N 02:23:11 20° N 02:24:34 10° N visible
26 Mar 10.5 01:17:02 15° NNE 01:17:02 15° NNE 01:18:19 10° NNE visible
26 Mar 9.8 02:55:10 18° NNW 02:55:10 18° NNW 02:56:20 10° NNW visible
27 Mar 10.0 01:49:01 21° NNE 01:49:01 21° NNE 01:50:52 10° N visible
27 Mar 9.9 03:27:09 13° NW 03:27:09 13° NW 03:27:44 10° NW visible
28 Mar 9.5 02:20:59 25° N 02:20:59 25° N 02:22:56 10° N visible
29 Mar 10.4 01:14:50 16° NE 01:14:50 16° NE 01:16:38 10° NNE visible
29 Mar 9.4 02:52:58 23° NNW 02:52:58 23° NNW 02:54:44 10° NNW visible
30 Mar 9.8 01:46:48 25° NNE 01:46:48 25° NNE 01:49:11 10° N visible
30 Mar 9.7 03:24:56 16° NW 03:24:56 16° NW 03:26:07 10° NW visible
31 Mar 9.2 02:18:46 32° N 02:18:46 32° N 02:21:17 10° N visible
01 Apr 10.3 01:12:35 17° NE 01:12:35 17° NE 01:14:54 10° NNE visible
01 Apr 9.0 02:50:43 29° NNW 02:50:43 29° NNW 02:53:04 10° NNW visible
